EW1336 Weather Reports


Display with metric or nautical units.
time (UTC)temp
F
wind
direction
speed
MPH
gust
MPH
rain 1hr
in
rain 24hr
in
rain mn
in
humidity
%
barometer
mb
20260506040043 43 226 0.0 0.0 0.00 0.80 0.71 88 1013.5
20260506034542 43 226 0.0 0.0 0.00 0.80 0.71 88 1013.1
20260506033043 44 226 0.0 0.0 0.00 0.80 0.71 88 1012.9
20260506031547 44 226 0.0 0.0 0.00 0.80 0.71 89 1012.9
20260506030041 44 227 0.0 0.0 0.00 0.88 0.71 89 1012.7
20260506024544 44 227 0.0 0.0 0.00 0.88 0.71 89 1012.5
20260506023036 44 226 0.0 0.0 0.00 0.88 0.71 89 1012.6
20260506021542 45 227 0.0 0.0 0.00 0.88 0.71 88 1012.5
20260506020034 45 226 0.0 0.0 0.00 0.89 0.71 88 1012.5
20260506014533 46 226 0.0 0.0 0.00 0.89 0.71 87 1012.4
20260506013033 47 226 0.0 0.0 0.00 0.89 0.71 85 1012.1
20260506011536 48 226 0.0 0.0 0.00 0.89 0.71 84 1012.0
20260506010033 49 227 0.0 0.0 0.00 0.89 0.71 83 1011.8
20260506004532 49 281 0.0 1.0 0.00 0.89 0.71 79 1011.9
20260506003030 50 225 0.0 0.0 0.00 0.89 0.71 79 1012.0
20260506001529 51 18 0.0 1.0 0.00 0.89 0.71 76 1012.2
20260506000038 51 232 1.0 4.0 0.00 0.99 0.71 79 1012.0
20260505234527 50 209 0.0 1.0 0.00 0.99 0.71 81 1012.1
20260505233027 50 260 0.0 0.0 0.00 0.99 0.71 80 1012.2
20260505231526 49 269 0.0 1.0 0.00 0.99 0.71 81 1012.3
20260505230031 49 281 0.0 2.0 0.00 1.03 0.71 79 1012.3
20260505224523 50 266 0.0 3.0 0.00 1.03 0.71 80 1012.2
20260505223030 50 218 0.0 2.0 0.00 1.03 0.71 78 1012.5
20260505221524 50 263 0.0 2.0 0.00 1.03 0.71 82 1012.4
20260505220020 50 232 0.0 4.0 0.00 1.03 0.71 78 1012.5
20260505214529 51 231 0.0 1.0 0.00 1.03 0.71 78 1012.7
20260505213019 50 222 0.0 1.0 0.02 1.03 0.71 78 1012.9
20260505211514 49 277 0.0 3.0 0.03 1.03 0.71 83 1013.1
20260505210013 48 206 0.0 1.0 0.05 1.07 0.71 85 1013.2
20260505204510 48 257 0.0 2.0 0.09 1.07 0.71 86 1013.1
20260505203009 46 246 0.0 1.0 0.11 1.05 0.69 86 1013.1
20260505201512 46 245 0.0 1.0 0.13 1.04 0.68 88 1013.2
20260505200008 47 195 0.0 3.0 0.14 1.14 0.66 87 1013.1
20260505194504 45 236 0.0 2.0 0.13 1.11 0.62 93 1013.3
20260505193100 43 281 0.0 1.0 0.14 1.08 0.59 93 1013.3
20260505191558 43 310 0.0 1.0 0.14 1.05 0.56 93 1013.4
20260505190055 42 181 0.0 2.0 0.13 1.01 0.52 93 1013.4
20260505184552 41 208 0.0 1.0 0.12 1.01 0.49 95 1013.4
20260505183102 40 233 0.0 0.0 0.11 0.97 0.45 95 1013.3
20260505181550 39 257 0.0 1.0 0.10 0.94 0.42 95 1013.1
20260505180048 38 224 0.0 0.0 0.09 0.91 0.39 95 1013.0
20260505174554 38 224 0.0 0.0 0.08 0.89 0.36 95 1012.8
20260505173038 38 222 0.0 0.0 0.09 0.87 0.34 95 1012.6
20260505171538 37 225 0.0 0.0 0.08 0.85 0.32 95 1012.5
20260505170035 37 229 0.0 0.0 0.08 0.85 0.30 95 1012.4
20260505164535 38 232 0.0 0.0 0.07 0.83 0.28 95 1012.2
20260505163033 37 165 0.0 0.0 0.06 0.80 0.25 95 1012.2
20260505161529 36 165 0.0 0.0 0.05 0.78 0.23 95 1012.0
20260505153024 36 165 0.0 0.0 0.04 0.75 0.19 96 1011.5
20260505151519 35 165 0.0 0.0 0.04 0.74 0.18 96 1011.3
20260505124511 33 165 0.0 0.0 0.01 0.68 0.12 96 1010.0
20260505123006 33 165 0.0 0.0 0.02 0.68 0.12 96 1009.9
20260505121507 33 165 0.0 0.0 0.02 0.68 0.12 96 1009.7
20260505120014 33 165 0.0 0.0 0.02 0.67 0.11 96 1009.5
20260505114504 33 165 0.0 0.0 0.02 0.67 0.11 96 1009.6
20260505113003 33 165 0.0 0.0 0.01 0.66 0.10 96 1009.4
20260505111503 33 165 0.0 0.0 0.02 0.66 0.10 96 1009.6
20260505101557 33 165 0.0 0.0 0.01 0.64 0.08 96 1009.9
20260505100055 32 165 0.0 0.0 0.01 0.64 0.08 96 1010.0
20260505094554 32 165 0.0 0.0 0.02 0.64 0.08 96 1010.2
20260505093059 32 165 0.0 0.0 0.02 0.63 0.07 96 1010.2
20260505091602 32 165 0.0 0.0 0.02 0.63 0.07 96 1010.3
20260505090052 32 165 0.0 0.0 0.03 0.63 0.07 96 1010.3
20260505084552 32 165 0.0 0.0 0.04 0.62 0.06 96 1010.4
20260505083056 32 165 0.0 0.0 0.03 0.61 0.05 96 1010.6
20260505081549 32 165 0.0 0.0 0.04 0.61 0.05 96 1010.7
20260505080050 32 165 0.0 0.0 0.04 0.60 0.04 96 1010.6
20260505074546 32 165 0.0 0.0 0.03 0.57 0.02 95 1011.2
20260505073052 32 165 0.0 0.0 0.04 0.57 0.02 95 1011.1
20260505071554 32 165 0.0 0.0 0.03 0.56 0.01 95 1010.8
20260505070041 32 165 0.0 0.0 0.02 0.56 0.56 95 1010.6
20260505064542 32 165 0.0 0.0 0.02 0.55 0.55 95 1010.4
20260505063040 32 165 0.0 0.0 0.01 0.54 0.54 95 1010.3
20260505061541 32 165 0.0 0.0 0.02 0.54 0.54 95 1010.3
20260505060047 32 165 0.0 0.0 0.02 0.54 0.54 95 1010.2
20260505054539 32 165 0.0 0.0 0.02 0.53 0.53 95 1010.3
20260505053039 32 165 0.0 0.0 0.02 0.53 0.53 95 1010.5
20260505051550 32 165 0.0 0.0 0.02 0.52 0.52 95 1010.5
20260505041537 32 164 0.0 0.0 0.02 0.50 0.50 95 1010.4